QPF
0.01 0.02 0.02 0.02 0.02 0.03 0.03 0.03 0.04 0.03 0.03 0.03 0.03 0.04 0.03 0.02 0.03 0.08 0.13 0.11 0.10 0.09 0.10 0.07 0.04 0.03 0.03 0.04 0.04 0.04 0.04 0.04 0.05 0.07 0.09 0.12 0.14 0.14
0.06 0.07 0.06 0.04 0.03 0.04 0.04 0.04 0.04 0.04 0.04 0.03 0.03 0.03 0.03 0.03 0.03 0.05 0.09 0.13 0.16 0.15 0.11 0.07 0.05 0.04 0.04 0.04 0.03 0.02 0.02 0.02 0.03 0.03 0.04 0.07 0.10 0.15
0.10 0.10 0.10 0.08 0.06 0.06 0.06 0.06 0.05 0.05 0.05 0.03 0.02 0.02 0.02 0.02 0.03 0.03 0.06 0.10 0.10 0.08 0.07 0.06 0.05 0.05 0.04 0.03 0.02 0.01 0.01 0.01 0.01 0.01 0.02 0.03 0.05 0.10
0.13 0.12 0.11 0.10 0.09 0.10 0.09 0.08 0.08 0.07 0.06 0.05 0.03 0.02 0.01 0.01 0.02 0.02 0.03 0.04 0.04 0.05 0.05 0.04 0.04 0.04 0.03 0.02 0.01 0.01 0.01 0.01 0.00 0.00 0.01 0.02 0.03 0.04
0.11 0.11 0.08 0.08 0.07 0.07 0.06 0.05 0.04 0.04 0.03 0.03 0.03 0.02 0.02 0.02 0.03 0.02 0.02 0.02 0.02 0.03 0.03 0.03 0.03 0.03 0.03 0.02 0.02 0.01 0.01 0.01 0.01 0.00 0.00 0.01 0.01 0.03
0.03 0.03 0.02 0.02 0.02 0.02 0.01 0.01 0.01 0.01 0.02 0.03 0.03 0.02 0.01 0.01 0.02 0.01 0.01 0.01 0.01 0.01 0.01 0.02 0.02 0.02 0.02 0.02 0.02 0.02 0.02 0.02 0.01 0.01 0.01 0.01 0.01 0.01
0.02 0.02 0.02 0.02 0.01 0.01 0.01 0.00 0.01 0.01 0.01 0.01 0.01 0.01 0.00 0.01 0.01 0.01 0.00 0.00 0.00 0.00 0.01 0.01 0.02 0.02 0.01 0.02 0.02 0.02 0.02 0.02 0.02 0.02 0.01 0.01 0.01 0.01
0.03 0.02 0.02 0.02 0.02 0.01 0.02 0.01 0.01 0.01 0.01 0.01 0.01 0.01 0.01 0.00 0.00 0.00 0.00 0.00 0.00 0.00 0.00 0.01 0.02 0.01 0.01 0.01 0.02 0.02 0.02 0.02 0.02 0.02 0.02 0.02 0.02 0.03
0.02 0.02 0.02 0.02 0.02 0.02 0.02 0.01 0.01 0.01 0.01 0.01 0.00 0.01 0.01 0.00 0.00 0.00 0.00 0.00 0.01 0.01 0.01 0.02 0.02 0.01 0.01 0.02 0.03 0.02 0.02 0.03 0.03 0.03 0.04 0.04 0.05 0.05
0.03 0.03 0.03 0.02 0.02 0.02 0.01 0.01 0.01 0.01 0.01 0.01 0.01 0.00 0.00 0.00 0.00 0.01 0.00 0.01 0.01 0.01 0.02 0.02 0.02 0.02 0.02 0.03 0.05 0.04 0.03 0.02 0.02 0.03 0.03 0.03 0.04 0.06
0.04 0.04 0.04 0.03 0.03 0.02 0.01 0.01 0.01 0.01 0.01 0.01 0.01 0.01 0.00 0.00 0.01 0.01 0.01 0.01 0.01 0.02 0.02 0.03 0.04 0.03 0.03 0.04 0.05 0.04 0.03 0.02 0.01 0.01 0.02 0.02 0.03 0.04
0.05 0.05 0.05 0.04 0.04 0.03 0.01 0.01 0.01 0.01 0.01 0.01 0.01 0.00 0.00 0.01 0.02 0.02 0.02 0.02 0.02 0.02 0.03 0.04 0.05 0.05 0.04 0.04 0.03 0.02 0.02 0.01 0.01 0.01 0.01 0.01 0.02 0.02
0.06 0.05 0.04 0.03 0.03 0.04 0.02 0.01 0.01 0.01 0.01 0.01 0.01 0.00 0.00 0.01 0.01 0.02 0.02 0.01 0.02 0.02 0.03 0.04 0.05 0.06 0.04 0.02 0.02 0.02 0.02 0.01 0.01 0.01 0.01 0.01 0.02 0.02
0.06 0.04 0.04 0.03 0.03 0.03 0.03 0.03 0.02 0.01 0.01 0.01 0.01 0.01 0.01 0.01 0.01 0.01 0.01 0.01 0.01 0.03 0.03 0.03 0.04 0.07 0.05 0.02 0.02 0.02 0.02 0.02 0.02 0.02 0.02 0.02 0.02 0.01
0.05 0.03 0.03 0.03 0.03 0.02 0.02 0.03 0.02 0.02 0.01 0.01 0.01 0.01 0.01 0.01 0.01 0.01 0.01 0.01 0.01 0.03 0.03 0.03 0.04 0.05 0.05 0.02 0.01 0.01 0.02 0.02 0.02 0.03 0.03 0.02 0.02 0.02
0.04 0.03 0.03 0.03 0.02 0.02 0.02 0.01 0.01 0.01 0.02 0.02 0.02 0.02 0.02 0.02 0.02 0.01 0.01 0.01 0.01 0.03 0.04 0.04 0.03 0.03 0.03 0.02 0.02 0.01 0.01 0.02 0.02 0.02 0.03 0.03 0.03 0.02
0.05 0.03 0.04 0.03 0.03 0.02 0.01 0.01 0.01 0.02 0.02 0.01 0.01 0.02 0.03 0.04 0.04 0.03 0.02 0.02 0.02 0.03 0.04 0.04 0.05 0.05 0.04 0.03 0.02 0.01 0.01 0.02 0.02 0.02 0.03 0.03 0.03 0.03
0.06 0.04 0.03 0.03 0.03 0.02 0.01 0.01 0.01 0.02 0.02 0.02 0.01 0.02 0.02 0.03 0.03 0.03 0.04 0.04 0.03 0.04 0.04 0.05 0.06 0.04 0.03 0.03 0.03 0.03 0.02 0.02 0.03 0.04 0.04 0.04 0.04 0.04
0.04 0.03 0.02 0.02 0.02 0.02 0.01 0.01 0.01 0.01 0.02 0.02 0.02 0.02 0.03 0.04 0.06 0.05 0.06 0.05 0.06 0.07 0.06 0.05 0.05 0.03 0.02 0.02 0.03 0.04 0.03 0.03 0.03 0.03 0.04 0.04 0.04 0.04
0.04 0.03 0.03 0.02 0.02 0.02 0.02 0.01 0.01 0.01 0.02 0.02 0.02 0.02 0.02 0.03 0.03 0.04 0.04 0.03 0.04 0.06 0.06 0.05 0.05 0.04 0.03 0.03 0.03 0.03 0.03 0.03 0.02 0.02 0.03 0.04 0.04 0.04
0.05 0.04 0.03 0.03 0.02 0.02 0.02 0.01 0.01 0.02 0.02 0.03 0.04 0.03 0.02 0.02 0.02 0.02 0.02 0.02 0.02 0.03 0.03 0.04 0.05 0.05 0.03 0.03 0.02 0.02 0.02 0.02 0.02 0.02 0.03 0.03 0.03 0.02
0.04 0.03 0.02 0.01 0.01 0.01 0.01 0.01 0.01 0.01 0.02 0.02 0.03 0.03 0.03 0.02 0.02 0.02 0.02 0.02 0.02 0.02 0.03 0.04 0.04 0.03 0.03 0.02 0.02 0.03 0.02 0.02 0.02 0.02 0.02 0.02 0.02 0.02
0.01 0.01 0.01 0.01 0.01 0.02 0.01 0.01 0.01 0.01 0.02 0.02 0.02 0.02 0.01 0.01 0.01 0.01 0.02 0.02 0.02 0.02 0.02 0.03 0.03 0.03 0.02 0.02 0.02 0.03 0.02 0.01 0.01 0.02 0.02 0.02 0.04 0.04
MSLP
1015.27 1015.48 1015.78 1016.13 1016.49 1016.81 1017.06 1017.20 1017.22 1017.12 1016.92 1016.65 1016.36 1016.06 1015.80 1015.58 1015.42 1015.31 1015.26 1015.24 1015.25 1015.27 1015.30 1015.33 1015.35 1015.36 1015.36 1015.34 1015.30 1015.23 1015.13 1015.01 1014.86 1014.69 1014.49 1014.28 1014.06 1013.83
1015.45 1015.57 1015.75 1015.99 1016.25 1016.50 1016.71 1016.85 1016.90 1016.85 1016.73 1016.53 1016.29 1016.02 1015.76 1015.52 1015.30 1015.12 1014.99 1014.90 1014.85 1014.84 1014.86 1014.91 1014.98 1015.06 1015.13 1015.19 1015.22 1015.21 1015.16 1015.06 1014.92 1014.73 1014.52 1014.28 1014.03 1013.77
1015.54 1015.57 1015.65 1015.79 1015.96 1016.15 1016.33 1016.47 1016.56 1016.58 1016.54 1016.42 1016.25 1016.03 1015.78 1015.51 1015.25 1015.00 1014.79 1014.61 1014.50 1014.44 1014.44 1014.49 1014.59 1014.72 1014.85 1014.98 1015.07 1015.12 1015.12 1015.05 1014.92 1014.73 1014.50 1014.24 1013.96 1013.67
1015.52 1015.50 1015.51 1015.57 1015.67 1015.81 1015.97 1016.12 1016.24 1016.33 1016.36 1016.32 1016.22 1016.05 1015.82 1015.55 1015.25 1014.95 1014.66 1014.41 1014.22 1014.11 1014.07 1014.10 1014.20 1014.36 1014.53 1014.71 1014.86 1014.96 1015.00 1014.97 1014.86 1014.68 1014.44 1014.16 1013.85 1013.54
1015.45 1015.39 1015.35 1015.36 1015.41 1015.52 1015.65 1015.81 1015.96 1016.09 1016.18 1016.21 1016.17 1016.04 1015.85 1015.58 1015.27 1014.93 1014.59 1014.28 1014.04 1013.86 1013.78 1013.78 1013.87 1014.01 1014.20 1014.41 1014.59 1014.73 1014.81 1014.81 1014.73 1014.56 1014.33 1014.04 1013.72 1013.39
1015.35 1015.28 1015.23 1015.20 1015.23 1015.30 1015.41 1015.56 1015.71 1015.86 1015.98 1016.05 1016.05 1015.97 1015.80 1015.56 1015.25 1014.91 1014.55 1014.21 1013.92 1013.71 1013.58 1013.55 1013.60 1013.73 1013.91 1014.11 1014.31 1014.47 1014.57 1014.60 1014.54 1014.40 1014.18 1013.89 1013.57 1013.22
1015.28 1015.22 1015.16 1015.12 1015.12 1015.16 1015.24 1015.35 1015.48 1015.62 1015.73 1015.81 1015.83 1015.77 1015.64 1015.43 1015.15 1014.83 1014.49 1014.16 1013.87 1013.64 1013.48 1013.42 1013.44 1013.53 1013.68 1013.86 1014.05 1014.22 1014.33 1014.38 1014.34 1014.22 1014.02 1013.74 1013.42 1013.06
1015.25 1015.21 1015.16 1015.12 1015.10 1015.10 1015.13 1015.19 1015.26 1015.35 1015.42 1015.47 1015.48 1015.43 1015.33 1015.16 1014.94 1014.68 1014.39 1014.11 1013.85 1013.63 1013.47 1013.39 1013.38 1013.44 1013.55 1013.70 1013.87 1014.02 1014.13 1014.19 1014.16 1014.06 1013.87 1013.60 1013.27 1012.91
1015.25 1015.25 1015.22 1015.18 1015.14 1015.10 1015.07 1015.05 1015.04 1015.04 1015.04 1015.03 1015.01 1014.96 1014.88 1014.76 1014.60 1014.42 1014.22 1014.01 1013.82 1013.66 1013.53 1013.45 1013.43 1013.47 1013.55 1013.66 1013.79 1013.92 1014.02 1014.06 1014.04 1013.94 1013.76 1013.48 1013.15 1012.77
1015.28 1015.31 1015.30 1015.27 1015.21 1015.13 1015.03 1014.93 1014.82 1014.71 1014.62 1014.53 1014.46 1014.39 1014.32 1014.24 1014.16 1014.07 1013.98 1013.87 1013.77 1013.69 1013.62 1013.58 1013.57 1013.60 1013.65 1013.74 1013.84 1013.94 1014.01 1014.04 1014.00 1013.89 1013.69 1013.41 1013.06 1012.65
1015.29 1015.35 1015.38 1015.36 1015.29 1015.17 1015.01 1014.82 1014.61 1014.40 1014.20 1014.03 1013.89 1013.79 1013.72 1013.68 1013.66 1013.66 1013.67 1013.68 1013.69 1013.69 1013.70 1013.72 1013.74 1013.78 1013.84 1013.91 1013.99 1014.06 1014.10 1014.11 1014.05 1013.91 1013.69 1013.38 1013.00 1012.57
1015.26 1015.36 1015.41 1015.42 1015.35 1015.21 1015.00 1014.74 1014.45 1014.14 1013.85 1013.59 1013.38 1013.24 1013.16 1013.13 1013.16 1013.24 1013.33 1013.44 1013.55 1013.65 1013.74 1013.83 1013.90 1013.98 1014.05 1014.13 1014.20 1014.25 1014.27 1014.25 1014.16 1014.00 1013.75 1013.41 1012.99 1012.52
1015.19 1015.32 1015.42 1015.45 1015.39 1015.25 1015.02 1014.71 1014.36 1013.98 1013.61 1013.28 1013.00 1012.81 1012.70 1012.68 1012.73 1012.84 1013.00 1013.17 1013.36 1013.54 1013.71 1013.86 1014.00 1014.12 1014.23 1014.33 1014.41 1014.46 1014.48 1014.44 1014.32 1014.13 1013.85 1013.48 1013.03 1012.53
1015.11 1015.27 1015.40 1015.46 1015.43 1015.30 1015.07 1014.75 1014.36 1013.94 1013.52 1013.14 1012.81 1012.57 1012.42 1012.37 1012.41 1012.52 1012.69 1012.90 1013.13 1013.36 1013.59 1013.80 1014.00 1014.17 1014.33 1014.47 1014.58 1014.65 1014.67 1014.63 1014.51 1014.30 1013.99 1013.60 1013.13 1012.61
1015.05 1015.24 1015.40 1015.49 1015.49 1015.39 1015.18 1014.87 1014.49 1014.06 1013.62 1013.20 1012.84 1012.55 1012.35 1012.25 1012.25 1012.32 1012.47 1012.66 1012.89 1013.13 1013.39 1013.64 1013.88 1014.11 1014.32 1014.51 1014.67 1014.78 1014.83 1014.81 1014.70 1014.49 1014.18 1013.77 1013.29 1012.76
1015.06 1015.27 1015.45 1015.58 1015.61 1015.55 1015.38 1015.10 1014.75 1014.34 1013.91 1013.48 1013.09 1012.76 1012.51 1012.35 1012.27 1012.27 1012.35 1012.48 1012.67 1012.88 1013.13 1013.39 1013.66 1013.93 1014.20 1014.45 1014.67 1014.84 1014.94 1014.96 1014.88 1014.69 1014.40 1014.01 1013.54 1013.02
1015.20 1015.41 1015.61 1015.76 1015.83 1015.80 1015.68 1015.46 1015.15 1014.78 1014.37 1013.96 1013.56 1013.20 1012.89 1012.65 1012.49 1012.39 1012.36 1012.40 1012.50 1012.66 1012.86 1013.10 1013.38 1013.68 1014.00 1014.31 1014.60 1014.83 1015.00 1015.08 1015.06 1014.92 1014.67 1014.31 1013.87 1013.37
1015.47 1015.69 1015.90 1016.07 1016.17 1016.18 1016.11 1015.94 1015.69 1015.37 1015.00 1014.61 1014.21 1013.83 1013.47 1013.16 1012.89 1012.68 1012.54 1012.46 1012.45 1012.51 1012.64 1012.84 1013.10 1013.41 1013.75 1014.11 1014.46 1014.78 1015.02 1015.18 1015.23 1015.16 1014.97 1014.67 1014.28 1013.82
1015.90 1016.12 1016.34 1016.52 1016.64 1016.69 1016.65 1016.54 1016.34 1016.08 1015.76 1015.40 1015.01 1014.61 1014.21 1013.82 1013.46 1013.14 1012.87 1012.66 1012.52 1012.47 1012.51 1012.64 1012.86 1013.16 1013.51 1013.91 1014.31 1014.68 1015.01 1015.24 1015.38 1015.40 1015.29 1015.06 1014.74 1014.33
1016.45 1016.69 1016.91 1017.10 1017.24 1017.31 1017.31 1017.23 1017.09 1016.87 1016.60 1016.27 1015.89 1015.48 1015.05 1014.60 1014.16 1013.73 1013.34 1013.01 1012.75 1012.58 1012.51 1012.56 1012.71 1012.97 1013.31 1013.71 1014.14 1014.57 1014.95 1015.26 1015.48 1015.59 1015.57 1015.43 1015.19 1014.87
1017.09 1017.35 1017.58 1017.78 1017.93 1018.01 1018.04 1017.99 1017.88 1017.70 1017.46 1017.16 1016.80 1016.39 1015.93 1015.44 1014.93 1014.42 1013.92 1013.48 1013.10 1012.82 1012.64 1012.59 1012.67 1012.86 1013.16 1013.54 1013.97 1014.42 1014.84 1015.21 1015.50 1015.69 1015.76 1015.72 1015.58 1015.35
1017.79 1018.07 1018.32 1018.52 1018.67 1018.77 1018.80 1018.77 1018.68 1018.52 1018.30 1018.02 1017.67 1017.26 1016.79 1016.26 1015.71 1015.13 1014.57 1014.03 1013.56 1013.18 1012.90 1012.75 1012.73 1012.85 1013.08 1013.40 1013.80 1014.23 1014.65 1015.05 1015.39 1015.64 1015.81 1015.87 1015.83 1015.70
1018.48 1018.79 1019.05 1019.26 1019.42 1019.51 1019.54 1019.51 1019.42 1019.28 1019.07 1018.79 1018.45 1018.04 1017.56 1017.03 1016.45 1015.84 1015.22 1014.63 1014.09 1013.62 1013.26 1013.01 1012.89 1012.91 1013.04 1013.29 1013.61 1013.99 1014.39 1014.77 1015.13 1015.43 1015.66 1015.80 1015.87 1015.86
Thickness
5701 5700 5698 5698 5697 5696 5694 5691 5685 5679 5680 5685 5688 5691 5692 5691 5691 5691 5690 5690 5691 5691 5690 5690 5690 5689 5688 5687 5686 5685 5684 5684 5684 5684 5684 5684 5684 5683
5696 5695 5693 5693 5693 5692 5691 5689 5686 5681 5677 5681 5683 5686 5687 5687 5686 5686 5686 5686 5686 5686 5686 5685 5685 5684 5683 5682 5681 5680 5680 5679 5679 5679 5679 5679 5679 5679
5692 5690 5689 5688 5687 5687 5686 5685 5683 5680 5675 5676 5679 5681 5681 5681 5682 5681 5681 5681 5681 5681 5681 5681 5680 5679 5679 5678 5677 5676 5676 5675 5675 5674 5674 5674 5674 5674
5687 5686 5685 5685 5683 5682 5681 5680 5678 5677 5674 5671 5673 5674 5675 5676 5676 5676 5676 5677 5676 5677 5676 5676 5676 5675 5674 5674 5673 5672 5671 5671 5670 5669 5669 5669 5668 5668
5683 5682 5681 5680 5678 5677 5676 5675 5674 5674 5671 5668 5667 5669 5669 5670 5670 5670 5671 5671 5671 5672 5672 5672 5671 5670 5670 5669 5669 5668 5667 5666 5665 5664 5663 5663 5663 5663
5678 5678 5678 5677 5675 5673 5672 5671 5669 5667 5666 5664 5662 5662 5663 5664 5663 5662 5663 5664 5664 5666 5666 5666 5665 5665 5665 5664 5664 5664 5663 5662 5661 5660 5659 5658 5658 5657
5672 5673 5674 5674 5673 5671 5670 5667 5665 5662 5660 5658 5656 5656 5656 5656 5656 5656 5655 5655 5656 5658 5658 5659 5659 5659 5659 5659 5659 5659 5659 5658 5656 5655 5654 5653 5652 5652
5666 5667 5668 5668 5668 5667 5666 5665 5662 5658 5655 5653 5651 5650 5651 5651 5651 5650 5648 5646 5646 5650 5649 5650 5651 5651 5652 5652 5653 5653 5653 5652 5651 5650 5649 5648 5647 5646
5661 5661 5662 5663 5662 5661 5660 5660 5658 5657 5655 5652 5649 5648 5648 5648 5646 5644 5643 5641 5640 5643 5642 5642 5644 5643 5645 5646 5646 5647 5647 5646 5646 5645 5644 5643 5642 5640
5657 5657 5656 5656 5656 5654 5653 5652 5651 5651 5651 5650 5648 5647 5647 5645 5643 5641 5639 5637 5637 5638 5637 5634 5636 5637 5640 5640 5640 5641 5641 5640 5639 5638 5637 5636 5635 5634
5652 5653 5652 5650 5650 5649 5647 5645 5645 5645 5647 5646 5645 5644 5643 5642 5640 5636 5633 5631 5629 5631 5632 5630 5630 5631 5632 5633 5634 5634 5633 5633 5632 5631 5631 5630 5629 5627
5646 5646 5646 5645 5644 5643 5642 5640 5638 5638 5639 5639 5638 5638 5637 5637 5635 5633 5630 5626 5624 5624 5627 5625 5624 5624 5623 5626 5627 5627 5626 5626 5625 5624 5624 5623 5622 5620
5639 5639 5639 5639 5638 5638 5637 5636 5635 5634 5632 5631 5630 5630 5630 5630 5629 5628 5627 5625 5621 5620 5622 5621 5619 5617 5616 5617 5618 5619 5619 5619 5618 5618 5617 5617 5615 5614
5633 5633 5633 5633 5632 5632 5632 5631 5630 5628 5627 5625 5624 5623 5623 5623 5623 5623 5622 5622 5621 5619 5619 5617 5614 5613 5611 5610 5610 5612 5612 5612 5611 5611 5610 5610 5609 5607
5628 5628 5627 5627 5627 5626 5626 5625 5624 5622 5621 5619 5618 5618 5618 5618 5618 5617 5616 5616 5615 5614 5613 5613 5611 5610 5607 5605 5605 5605 5605 5605 5605 5604 5604 5603 5602 5601
5620 5620 5620 5620 5620 5620 5620 5619 5619 5617 5615 5614 5613 5613 5613 5612 5610 5610 5608 5608 5606 5606 5607 5606 5606 5605 5602 5601 5600 5599 5599 5598 5599 5598 5598 5597 5596 5596
5613 5612 5611 5611 5610 5611 5611 5612 5611 5610 5609 5608 5607 5606 5605 5604 5603 5603 5602 5601 5599 5598 5598 5599 5599 5599 5599 5597 5595 5595 5594 5593 5593 5593 5591 5590 5590 5590
5605 5604 5604 5603 5602 5602 5603 5603 5603 5602 5602 5601 5600 5598 5597 5597 5596 5596 5595 5594 5593 5592 5591 5591 5591 5590 5589 5590 5591 5590 5589 5588 5587 5587 5585 5583 5583 5584
5596 5596 5596 5596 5595 5595 5596 5596 5595 5595 5595 5593 5592 5591 5591 5590 5589 5588 5587 5586 5586 5585 5585 5584 5583 5582 5580 5580 5583 5585 5583 5582 5580 5579 5578 5577 5577 5578
5589 5589 5589 5589 5589 5589 5589 5589 5588 5588 5587 5586 5585 5584 5584 5583 5582 5581 5581 5580 5579 5579 5578 5577 5576 5576 5575 5575 5575 5577 5577 5575 5574 5572 5571 5571 5571 5572
5582 5582 5582 5582 5583 5583 5583 5582 5582 5581 5580 5579 5578 5578 5577 5576 5575 5575 5574 5574 5573 5572 5571 5571 5572 5573 5572 5570 5568 5568 5569 5570 5569 5567 5565 5564 5563 5563
5575 5575 5576 5577 5577 5577 5576 5575 5575 5574 5574 5573 5572 5571 5571 5570 5569 5569 5568 5566 5566 5565 5565 5565 5566 5565 5564 5562 5561 5560 5561 5562 5562 5562 5561 5560 5557 5556
5570 5570 5571 5571 5571 5571 5570 5569 5569 5568 5567 5566 5566 5565 5564 5564 5563 5562 5561 5560 5560 5559 5558 5557 5557 5557 5557 5556 5554 5554 5554 5554 5554 5554 5554 5554 5553 5553